Weather History for KFLP - February, 2014

Change the Weather History Date:

Saturday, February 22, 2014

  Actual Average Record
Temperature  
Mean Temperature 50 °F -  
Max Temperature 69 °F 51 °F 69 °F (2012)
Min Temperature 30 °F 32 °F 19 °F (1999)
Degree Days  
Heating Degree Days 16    
Moisture  
Dew Point 22 °F    
Average Humidity 32    
Maximum Humidity 56    
Minimum Humidity 16    
Precipitation  
Precipitation 0.00 in - - ()
Sea Level Pressure  
Sea Level Pressure 29.93 in    
Wind  
Wind Speed 6 mph (South)    
Max Wind Speed 15 mph    
Max Gust Speed 26 mph    
Visibility 10 miles    
Events      
Averages and records for this station are not official NWS values.
T = Trace of Precipitation, MM = Missing Value Source: NWS Daily Summary

Daily Weather History Graph

Daily Weather History Graph

Search for Another Location

Airport or City:

Trip Planner

Search our weather history database for the weather conditions in past years. The results will help you decide how hot, cold, wet, or windy it might be!

Date:

Astronomy

Feb. 22, 2014 Rise Set
Actual Time 6:49 AM CST 5:58 PM CST
Civil Twilight 6:23 AM CST 6:24 PM CST
Nautical Twilight 5:53 AM CST 6:54 PM CST
Astronomical Twilight 5:23 AM CST 7:24 PM CST
Moon 12:41 AM CST (2/22) 11:14 AM CST (2/22)
Length of Visible Light 12h 00m
Length of Day
11h 08m
Waning Gibbous, 50% of the Moon is Illuminated
Feb 22
Waning Gibbous
Mar 1
New
Mar 8
First Quarter
Mar 16
Full
Mar 23
Last Quarter

Hourly Weather History & Observations

Time (CST) Temp. Windchill Dew Point Humidity Pressure Visibility Wind Dir Wind Speed Gust Speed Precip Events Conditions
12:15 AM 46.4 °F 42.4 °F 15.8 °F 29% 30.00 in 10.0 mi SW 8.1 mph - N/A   Clear
12:35 AM 46.4 °F 42.9 °F 15.8 °F 29% 30.00 in 10.0 mi SW 6.9 mph - N/A   Clear
12:55 AM 44.6 °F 40.7 °F 15.8 °F 31% 30.00 in 10.0 mi SSW 6.9 mph - N/A   Clear
1:15 AM 46.4 °F 42.4 °F 15.8 °F 29% 30.00 in 10.0 mi SSW 8.1 mph - N/A   Clear
1:35 AM 46.4 °F 42.9 °F 15.8 °F 29% 30.00 in 10.0 mi SW 6.9 mph - N/A   Clear
1:55 AM 46.4 °F 42.4 °F 15.8 °F 29% 29.99 in 10.0 mi SW 8.1 mph - N/A   Clear
2:15 AM 44.6 °F 40.7 °F 15.8 °F 31% 29.99 in 10.0 mi SW 6.9 mph - N/A   Clear
2:35 AM 41.0 °F 38.0 °F 14.0 °F 33% 29.99 in 10.0 mi SSW 4.6 mph - N/A   Clear
2:55 AM 42.8 °F 39.3 °F 15.8 °F 34% 29.99 in 10.0 mi SSW 5.8 mph - N/A   Clear
3:15 AM 42.8 °F 39.3 °F 14.0 °F 31% 29.98 in 10.0 mi SSW 5.8 mph - N/A   Clear
3:35 AM 42.8 °F 38.6 °F 15.8 °F 34% 29.98 in 10.0 mi SSW 6.9 mph - N/A   Clear
3:55 AM 42.8 °F 39.3 °F 14.0 °F 31% 29.98 in 10.0 mi South 5.8 mph - N/A   Clear
4:15 AM 42.8 °F 41.1 °F 15.8 °F 34% 29.98 in 10.0 mi South 3.5 mph - N/A   Clear
4:35 AM 39.2 °F 37.0 °F 14.0 °F 36% 29.98 in 10.0 mi SSE 3.5 mph - N/A   Clear
4:55 AM 37.4 °F - 14.0 °F 38% 29.99 in 10.0 mi Calm Calm - N/A   Clear
5:15 AM 35.6 °F - 15.8 °F 44% 30.00 in 10.0 mi Calm Calm - N/A   Clear
5:35 AM 35.6 °F - 15.8 °F 44% 30.00 in 10.0 mi Calm Calm - N/A   Clear
5:55 AM 37.4 °F - 15.8 °F 41% 30.00 in 10.0 mi Calm Calm - N/A   Clear
6:15 AM 37.4 °F - 15.8 °F 41% 30.00 in 10.0 mi Calm Calm - N/A   Clear
6:35 AM 32.0 °F 28.7 °F 15.8 °F 51% 30.00 in 10.0 mi East 3.5 mph - N/A   Clear
6:55 AM 30.2 °F 26.7 °F 15.8 °F 55% 30.00 in 10.0 mi East 3.5 mph - N/A   Clear
7:15 AM 30.2 °F 26.7 °F 15.8 °F 55% 30.01 in 10.0 mi ESE 3.5 mph - N/A   Clear
7:35 AM 32.0 °F - 17.6 °F 55% 30.01 in 10.0 mi Calm Calm - N/A   Clear
7:55 AM 33.8 °F - 19.4 °F 56% 30.01 in 10.0 mi Calm Calm - N/A   Clear
8:15 AM 35.6 °F - 19.4 °F 52% 30.01 in 10.0 mi Calm Calm - N/A   Clear
8:35 AM 39.2 °F - 21.2 °F 49% 30.01 in 10.0 mi Calm Calm - N/A   Clear
8:55 AM 44.6 °F - 23.0 °F 43% 30.00 in 10.0 mi Calm Calm - N/A   Clear
9:15 AM 48.2 °F - 24.8 °F 40% 30.00 in 10.0 mi Calm Calm - N/A   Clear
9:35 AM 51.8 °F - 24.8 °F 35% 30.00 in 10.0 mi SSE 3.5 mph - N/A   Clear
9:55 AM 55.4 °F - 24.8 °F 31% 29.99 in 10.0 mi SE 3.5 mph - N/A   Clear
10:15 AM 57.2 °F - 23.0 °F 27% 29.99 in 10.0 mi South 3.5 mph - N/A   Clear
10:35 AM 59.0 °F - 24.8 °F 27% 29.98 in 10.0 mi South 6.9 mph - N/A   Clear
10:55 AM 62.6 °F - 24.8 °F 24% 29.97 in 10.0 mi South 9.2 mph - N/A   Clear
11:15 AM 64.4 °F - 24.8 °F 22% 29.96 in 10.0 mi SSW 10.4 mph 18.4 mph N/A   Clear
11:35 AM 64.4 °F - 24.8 °F 22% 29.95 in 10.0 mi SSW 8.1 mph - N/A   Clear
11:55 AM 66.2 °F - 24.8 °F 21% 29.94 in 10.0 mi SSW 9.2 mph - N/A   Clear
12:15 PM 68.0 °F - 24.8 °F 20% 29.93 in 10.0 mi South 10.4 mph 18.4 mph N/A   Clear
12:35 PM 69.8 °F - 24.8 °F 18% 29.91 in 10.0 mi SSW 8.1 mph 19.6 mph N/A   Clear
12:55 PM 68.0 °F - 23.0 °F 18% 29.89 in 10.0 mi SSW 13.8 mph 24.2 mph N/A   Clear
1:15 PM 69.8 °F - 23.0 °F 17% 29.88 in 10.0 mi SSW 15.0 mph 23.0 mph N/A   Clear
1:35 PM 69.8 °F - 21.2 °F 16% 29.87 in 10.0 mi SSW 13.8 mph 24.2 mph N/A   Clear
1:55 PM 69.8 °F - 21.2 °F 16% 29.86 in 10.0 mi SSW 13.8 mph 26.5 mph N/A   Clear
2:15 PM 69.8 °F - 23.0 °F 17% 29.85 in 10.0 mi SSW 11.5 mph 17.3 mph N/A   Clear
2:35 PM 69.8 °F - 21.2 °F 16% 29.85 in 10.0 mi South 10.4 mph 20.7 mph N/A   Clear
2:55 PM 69.8 °F - 23.0 °F 17% 29.84 in 10.0 mi South 11.5 mph 20.7 mph N/A   Clear
3:15 PM 68.0 °F - 21.2 °F 17% 29.83 in 10.0 mi South 11.5 mph 18.4 mph N/A   Clear
3:35 PM 68.0 °F - 24.8 °F 20% 29.84 in 10.0 mi South 12.7 mph 19.6 mph N/A   Clear
3:55 PM 68.0 °F - 24.8 °F 20% 29.83 in 10.0 mi SSW 8.1 mph - N/A   Clear
4:15 PM 66.2 °F - 23.0 °F 19% 29.83 in 10.0 mi SSW 12.7 mph 21.9 mph N/A   Clear
4:35 PM 66.2 °F - 24.8 °F 21% 29.82 in 10.0 mi South 8.1 mph 16.1 mph N/A   Clear
4:55 PM 66.2 °F - 24.8 °F 21% 29.81 in 10.0 mi South 9.2 mph - N/A   Clear
5:15 PM 66.2 °F - 24.8 °F 21% 29.82 in 10.0 mi SSE 9.2 mph - N/A   Clear
5:35 PM 64.4 °F - 24.8 °F 22% 29.82 in 10.0 mi SSE 6.9 mph - N/A   Clear
5:55 PM 64.4 °F - 24.8 °F 22% 29.82 in 10.0 mi SSE 5.8 mph - N/A   Clear
6:15 PM 62.6 °F - 24.8 °F 24% 29.83 in 10.0 mi SSE 3.5 mph - N/A   Clear
6:35 PM 62.6 °F - 24.8 °F 24% 29.84 in 10.0 mi Calm Calm - N/A   Clear
6:55 PM 60.8 °F - 24.8 °F 25% 29.84 in 10.0 mi Calm Calm - N/A   Clear
7:15 PM 59.0 °F - 24.8 °F 27% 29.85 in 10.0 mi Calm Calm - N/A   Clear
7:35 PM 57.2 °F - 24.8 °F 29% 29.86 in 10.0 mi Calm Calm - N/A   Clear
7:55 PM 51.8 °F - 26.6 °F 38% 29.86 in 10.0 mi Calm Calm - N/A   Clear
8:15 PM 53.6 °F - 26.6 °F 35% 29.87 in 10.0 mi Calm Calm - N/A   Clear
8:35 PM 50.0 °F - 26.6 °F 40% 29.87 in 10.0 mi Calm Calm - N/A   Clear
8:55 PM 48.2 °F - 26.6 °F 43% 29.88 in 10.0 mi South 3.5 mph - N/A   Clear
9:15 PM 51.8 °F - 26.6 °F 38% 29.88 in 10.0 mi South 3.5 mph - N/A   Clear
9:35 PM 55.4 °F - 26.6 °F 33% 29.88 in 10.0 mi South 3.5 mph - N/A   Clear
9:55 PM 55.4 °F - 26.6 °F 33% 29.89 in 10.0 mi Calm Calm - N/A   Clear
10:15 PM 53.6 °F - 26.6 °F 35% 29.88 in 10.0 mi South 3.5 mph - N/A   Clear
10:35 PM 51.8 °F - 26.6 °F 38% 29.89 in 10.0 mi WNW 4.6 mph - N/A   Clear
10:55 PM 53.6 °F - 28.4 °F 38% 29.90 in 10.0 mi NW 3.5 mph - N/A   Clear
11:15 PM 51.8 °F - 26.6 °F 38% 29.90 in 10.0 mi Calm Calm - N/A   Clear
11:35 PM 51.8 °F - 26.6 °F 38% 29.90 in 10.0 mi Calm Calm - N/A   Clear
11:55 PM 46.4 °F - 26.6 °F 46% 29.91 in 10.0 mi Calm Calm - N/A   Clear